Regional Weather Roundup
Issued by NWS

Home | Current Version | Previous Version | Graphics & Text | Print | Product List | Glossary On
Versions: 1 2 3 4 5 6 7 8 9 10 11 12 13 14 15 16 17 18 19 20 21 22 23 24 25 26 27 28 29 30 31 32 33 34 35 36 37 38 39 40 41 42 43 44 45 46 47 48 49 50
000
ASUS43 KOAX 040702
RWRNE

WEATHER ROUNDUP FOR NEBRASKA
NATIONAL WEATHER SERVICE OMAHA NE
200 AM CDT SAT JUL 04 2015

NOTES: SATELLITE DATA IS BEING USED TO AUGMENT CLOUD COVER ABOVE
       12000 FEET.
       "FAIR" INDICATES FEW OR NO CLOUDS BELOW 12,000 FEET WITH NO
       SIGNIFICANT WEATHER AND/OR OBSTRUCTIONS TO VISIBILITY.

  * THESE STATIONS DO NOT REPORT WEATHER SUCH AS RAIN...SNOW OR FOG.

NEZ001>004-019>022-054>056-040800-
NEBRASKA PANHANDLE

CITY           SKY/WX    TMP DP  RH WIND       PRES   REMARKS
SCOTTSBLUFF    CLOUDY    68  57  68 E7        30.00F
ALLIANCE       CLOUDY    65  59  81 S9        30.00F
CHADRON        CLOUDY    73  56  54 S12G22    29.94F
KIMBALL          N/A    N/A N/A N/A MISG        N/A
SIDNEY         CLOUDY    68  59  73 S15G26    30.04F
$$

NEZ057>060-069>072-079>082-040800-
SOUTHWEST NEBRASKA

CITY           SKY/WX    TMP DP  RH WIND       PRES   REMARKS
NORTH PLATTE   PTCLDY    66  59  78 SE7       30.02F
IMPERIAL       PTCLDY    67  59  75 S10       30.03F
LEXINGTON      CLEAR     64  61  89 S6        30.02F
MCCOOK         PTCLDY    66  59  78 S7        30.02F
$$

NEZ005>010-023>029-035>040-094-040800-
NORTH CENTRAL NEBRASKA

CITY           SKY/WX    TMP DP  RH WIND       PRES   REMARKS
VALENTINE      CLEAR     65  60  84 S5        29.97F
AINSWORTH      CLEAR     63  61  93 S7        29.99S
BROKEN BOW     CLEAR     61  59  93 CALM      30.01F
ORD            CLEAR     63  59  87 SE3       30.00F
$$

NEZ041-046>049-061>064-073>077-083>087-040800-
SOUTH CENTRAL NEBRASKA

CITY           SKY/WX    TMP DP  RH WIND       PRES   REMARKS
GRAND ISLAND   CLEAR     63  60  90 S5        30.02S
AURORA         CLEAR     64  62  92 S5        30.01S
HASTINGS       CLEAR     65  61  87 S6        30.02S
KEARNEY *      CLEAR     63  57  82 S5        30.02F
$$

NEZ011>018-030>034-042>045-040800-
NORTHEAST NEBRASKA

CITY           SKY/WX    TMP DP  RH WIND       PRES   REMARKS
NORFOLK        CLEAR     62  59  90 S7        29.99S FOG
COLUMBUS *     CLEAR     57  54  88 CALM      29.99R
FREMONT        CLEAR     64  60  88 S3        29.99S FOG
TEKAMAH        CLEAR     58  55  90 CALM      29.98S
$$

NEZ050>053-065>068-078-088>093-040800-
SOUTHEAST NEBRASKA

CITY           SKY/WX    TMP DP  RH WIND       PRES   REMARKS
LINCOLN        CLEAR     66  59  78 SE3       30.01R HAZE
OMAHA EPPLEY   CLEAR     63  57  81 CALM      29.99R
FALLS CITY     CLEAR     63  58  83 CALM      29.98F
PLATTSMOUTH    CLEAR     62  53  71 SE5       30.00R
$$

NEZ044-045-051>053-067-040800-
OMAHA AREA

CITY           SKY/WX    TMP DP  RH WIND       PRES   REMARKS
OMAHA EPPLEY   CLEAR     63  57  81 CALM      29.99R
FREMONT        CLEAR     64  60  88 S3        29.99S FOG
MILLARD          N/A     60  59  94 CALM      29.99S FOG
OFFUTT AFB     CLEAR     55  54  98 E2        29.98R
PLATTSMOUTH    CLEAR     62  53  71 SE5       30.00R
$$


USA.gov is the U.S. government's official web portal to all federal, state and local government web resources and services.